Regional Weather Roundup
Issued by NWS Kansas City/Pleasant Hill, MO

Home | Current Version | Previous Version | Text Only | Print | Product List | Glossary On
Versions: 1 2 3 4 5 6 7 8 9 10 11 12 13 14 15 16 17 18 19 20 21 22 23 24 25 26 27 28 29 30 31 32 33 34 35 36 37 38 39 40 41 42 43 44 45 46 47 48 49 50
061
ASUS43 KEAX 011510
RWREAX

WEATHER ROUNDUP FOR EASTERN KANSAS AND NORTHWEST MISSOURI
NATIONAL WEATHER SERVICE KANSAS CITY/PLEASANT HILL MO
1000 AM CDT SUN MAY 01 2016

KSZ040-057-103>105-MOZ028-029-037-043-011600-
...KANSAS CITY METROPOLITAN AREA...

CITY           SKY/WX    TMP DP  RH WIND       PRES   REMARKS
K.C. INTL      PTSUNNY   56  48  74 W10       29.98R
K.C. DOWNTOWN  MOSUNNY   59  46  62 W12G20    29.97S
LEES SUMMIT    MOSUNNY   57  44  62 W10       29.98R
OLATHE - IXD   MOSUNNY   56  46  69 W10       30.00R
OLATHE - OJC   SUNNY     55  44  66 W9        29.98S
LAWRENCE       MOSUNNY   55  48  77 W13       29.99S

$$

MOZ001>008-011>017-020>025-030>033-038>040-044>046-053-054-011600-
...NORTHERN AND CENTRAL MISSOURI...

CITY           SKY/WX    TMP DP  RH WIND       PRES   REMARKS
ST. JOSEPH     CLOUDY    53  49  86 N8        29.98R
MOSBY          MOSUNNY   57  46  67 W9        29.97S
WARRENSBURG    CLOUDY    57  41  54 W9        29.98R
WHITEMAN AFB   PTSUNNY   59  45  60 W13       29.96R
CLINTON        PTSUNNY   59  46  63 W10       30.00R
SEDALIA        MOSUNNY   61  49  64 W13       29.98R
WARSAW         NOT AVBL
CHILLICOTHE      N/A     53  50  89 NE5       29.97R
KIRKSVILLE     CLOUDY    51  48  89 NE5       29.97R

$$

MOZ041-047>049-056>058-063>065-088>090-097-011600-
...EASTERN AND SOUTHERN MISSOURI...

CITY           SKY/WX    TMP DP  RH WIND       PRES   REMARKS
ST. LOUIS INTL CLOUDY    63  58  83 CALM      29.93R
SPIRIT OF STL  CLOUDY    62  58  86 CALM      29.92R
COLUMBIA       PTSUNNY   62  56  80 W10       29.95R
JEFFERSON CITY MOSUNNY   60  55  83 W6        29.95R
ROLLA          SUNNY     63  51  65 W8        29.93R
OSAGE BEACH    SUNNY     61  43  51 W10G17    29.98R
SPRINGFIELD    SUNNY     60  45  57 W9        30.00R
BRANSON        SUNNY     59  45  58 W5        30.01R
JOPLIN         SUNNY     57  47  69 W7        30.01F
WEST PLAINS    SUNNY     64  53  67 W6        29.98R

$$

IAZ060-094-KSZ022-034>040-054-083-096-NEZ052-066-093-011600-
...KANSAS...SOUTHEAST NEBRASKA AND IOWA...

CITY           SKY/WX    TMP DP  RH WIND       PRES   REMARKS
TOPEKA         CLOUDY    53  47  79 W12       30.00S
MANHATTAN      CLOUDY    50  43  77 SW7       30.02R
EMPORIA        MOSUNNY   50  42  74 W13       30.02S
CHANUTE        MOSUNNY   54  43  66 NW13G21   30.02S
WICHITA        CLOUDY    50  41  71 NW18G24   30.06S
OMAHA          LGT RAIN  45  44  97 N13       30.05R FOG
LINCOLN        CLOUDY    45  43  93 N17       30.07R FOG
FALLS CITY     CLOUDY    51  48  89 N7        29.98S
LAMONI         LGT RAIN  45  45 100 N9        29.98R FOG
DES MOINES     DRIZZLE   46  43  89 NE13      30.00S

$$





USA.gov is the U.S. government's official web portal to all federal, state and local government web resources and services.